Weather History for Cross City, FL

Change the Weather History Date:

Wednesday, October 23, 2013

  Actual Average Record
Temperature  
Mean Temperature 67 °F 68 °F  
Max Temperature 78 °F 81 °F 88 °F (2007)
Min Temperature 55 °F 55 °F 39 °F (2011)
Degree Days  
Heating Degree Days 0 2  
Month to date heating degree days 0 15  
Since 1 July heating degree days 0 15  
Cooling Degree Days 2 5  
Month to date cooling degree days 237 167  
Year to date cooling degree days 2736 2509  
Growing Degree Days 16 (Base 50)    
Moisture  
Dew Point 57 °F    
Average Humidity 73    
Maximum Humidity 100    
Minimum Humidity 38    
Precipitation  
Precipitation 0.00 in 0.09 in 0.68 in (2005)
Month to date precipitation 1.23 2.70  
Year to date precipitation 59.17 42.53  
Sea Level Pressure  
Sea Level Pressure 29.94 in    
Wind  
Wind Speed 6 mph (NNW)    
Max Wind Speed 16 mph    
Max Gust Speed 21 mph    
T = Trace of Precipitation, MM = Missing Value Source: NWS Daily Summary

Daily Weather History Graph

Daily Weather History Graph

Search for Another Location

Airport:

Trip Planner

Search our weather history database for the weather conditions in past years. The results will help you decide how hot, cold, wet, or windy it might be!

Date:

Astronomy

Oct. 23, 2013 Rise Set
Actual Time 7:39 AM EDT 6:53 PM EDT
Civil Twilight 7:15 AM EDT 7:17 PM EDT
Nautical Twilight 6:47 AM EDT 7:45 PM EDT
Astronomical Twilight 6:19 AM EDT 8:13 PM EDT
Moon 10:34 PM EDT (10/23) 11:44 AM EDT (10/23)
Length of Visible Light 12h 02m
Length of Day
11h 14m
Waning Gibbous, 79% of the Moon is Illuminated
Oct 23
Waning Gibbous
Oct 26
Last Quarter
Nov 3
New
Nov 10
First Quarter
Nov 17
Full

Hourly Weather History & Observations

Time (EDT) Temp. Dew Point Humidity Pressure Visibility Wind Dir Wind Speed Gust Speed Precip Events Conditions
12:53 AM 69.1 °F 68.0 °F 96% 29.87 in - North 5.8 mph - N/A   Unknown
1:53 AM 68.0 °F 66.9 °F 96% 29.86 in - North 4.6 mph - N/A   Unknown
2:53 AM 68.0 °F 66.9 °F 96% 29.87 in - NNW 3.5 mph - N/A   Unknown
3:53 AM 66.9 °F 66.0 °F 97% 29.86 in - NNW 4.6 mph - N/A   Unknown
4:53 AM 66.0 °F 64.9 °F 96% 29.86 in - NNW 5.8 mph - N/A   Unknown
5:53 AM 64.9 °F 64.0 °F 97% 29.88 in - Calm Calm - N/A   Unknown
6:53 AM 64.0 °F 62.1 °F 93% 29.90 in - NNW 4.6 mph - N/A   Unknown
7:53 AM 62.1 °F 61.0 °F 96% 29.92 in - NNW 3.5 mph - 0.01 in   Unknown
8:53 AM 64.0 °F 60.1 °F 87% 29.94 in - North 6.9 mph - 0.01 in   Unknown
9:53 AM 66.0 °F 57.9 °F 75% 29.96 in - North 6.9 mph - N/A   Unknown
10:53 AM 69.1 °F 55.0 °F 61% 29.97 in - North 15.0 mph 20.7 mph N/A   Unknown
11:53 AM 72.0 °F 52.0 °F 49% 29.97 in - North 12.7 mph - N/A   Unknown
12:53 PM 73.0 °F 54.0 °F 51% 29.96 in - Variable 6.9 mph - N/A   Unknown
1:53 PM 75.0 °F 52.0 °F 44% 29.94 in - NW 12.7 mph - N/A   Unknown
2:53 PM 75.0 °F 52.0 °F 44% 29.91 in - North 11.5 mph - N/A   Unknown
3:53 PM 77.0 °F 52.0 °F 42% 29.91 in - North 8.1 mph - N/A   Unknown
4:53 PM 75.9 °F 48.0 °F 37% 29.91 in - NNW 9.2 mph - N/A   Unknown
5:53 PM 73.9 °F 46.9 °F 38% 29.93 in - NNW 5.8 mph - N/A   Unknown
6:53 PM 66.9 °F 52.0 °F 59% 29.95 in - Calm Calm - N/A   Unknown
7:53 PM 60.1 °F 54.0 °F 80% 29.97 in - Calm Calm - N/A   Unknown
8:53 PM 55.9 °F 52.0 °F 87% 30.00 in - NNW 3.5 mph - N/A   Unknown
9:53 PM 55.9 °F 51.1 °F 84% 30.02 in - Calm Calm - N/A   Unknown
10:53 PM 57.0 °F 48.9 °F 74% 30.06 in - NW 3.5 mph - N/A   Unknown
11:53 PM 55.9 °F 48.9 °F 77% 30.07 in - NNW 4.6 mph - N/A   Unknown